Flag for India Weather past 2 weeks in Lucknow, Uttar Pradesh, India

Now
90 °F

Broken clouds.


Feels Like: 111 °F
Forecast: 83 / 97 °F
Wind: 6 mph from East

Location: Lucknow / Amausi

Current Time: Aug 1, 2014 at 9:30:22 AM

Latest Report: Aug 1, 2014 at 8:30 AM


Visibility: 2 mi

Pressure: 29.56 "Hg

Humidity: 79%

Dew point: 82 °F

Location of LucknowLocation

Historic Weather in Lucknow — Graph

°F

Lucknow temperature yesterday

Maximum temperature yesterday: 95 °F (at 12:00 PM)
Minimum temperature yesterday: 82 °F (at 5:30 AM)
Average temperature yesterday: 88 °F

Past Weeks' High & Low Weather Summary

 TemperatureHumidityPressure
High102 °F (Jul 21, 12:30 PM)100% (Jul 18, 5:00 AM)29.68 "Hg (Jul 18, 5:00 AM)
Low77 °F (Jul 18, 11:30 AM)51% (Jul 27, 9:00 AM)29.36 "Hg (Jul 17, 4:30 PM)
Average86 °F83%29.50 "Hg
* Reported Jul 17 7:30 AM — Aug 1 7:30 AM, Lucknow, Weather by CustomWeather, © 2014

Note: Actual official high and low records may vary slightly from our data, if they occured in-between our weather recording intervals... More about our weather records

Advertising

Lucknow weather history for previous 24 hours

 ConditionsComfort  
Time TempWeatherWind HumidityBarometerVisibility
7:30 AM
Aug 1
86 °FScattered clouds.3 mph89%29.56 "Hg2 mi
7:00 AM84 °FScattered clouds.3 mph89%29.53 "Hg2 mi
6:30 AM84 °FScattered clouds.3 mph89%29.53 "Hg2 mi
6:00 AM82 °FScattered clouds.3 mph94%29.53 "Hg2 mi
5:30 AM82 °FPassing clouds.5 mph94%29.53 "Hg2 mi
5:00 AM82 °FPassing clouds.5 mph94%29.53 "Hg2 mi
4:00 AM82 °FPassing clouds.3 mph94%29.50 "Hg2 mi
3:00 AM82 °FPassing clouds.3 mph94%29.50 "Hg2 mi
2:00 AM84 °FPassing clouds.2 mph89%29.53 "Hg2 mi
1:00 AM84 °FPassing clouds.3 mph89%29.53 "Hg2 mi
12:00 AM84 °FPassing clouds.3 mph89%29.53 "Hg2 mi
11:00 PM
Jul 31
84 °FPartly cloudy.3 mph94%29.53 "Hg2 mi
10:00 PM86 °FPassing clouds.5 mph89%29.53 "Hg2 mi
9:00 PM86 °FPartly cloudy.2 mph89%29.50 "Hg2 mi
8:30 PM90 °FPartly cloudy.2 mph79%29.50 "Hg2 mi
7:30 PM88 °FPartly cloudy.2 mph84%29.47 "Hg2 mi
7:00 PM90 °FBroken clouds.2 mph79%29.47 "Hg2 mi
6:30 PM90 °FBroken clouds.2 mph79%29.47 "Hg2 mi
6:00 PM90 °FBroken clouds.3 mph79%29.47 "Hg2 mi
5:30 PM90 °FBroken clouds.3 mph79%29.45 "Hg2 mi
5:00 PM90 °FBroken clouds.2 mph79%29.47 "Hg2 mi
4:30 PM90 °FBroken clouds.2 mph79%29.47 "Hg2 mi
4:00 PM90 °FBroken clouds.3 mph79%29.47 "Hg2 mi
3:00 PM90 °FBroken clouds.3 mph79%29.50 "Hg2 mi
2:30 PM88 °FBroken clouds.No wind84%29.50 "Hg2 mi
2:00 PM88 °FBroken clouds.2 mph84%29.53 "Hg2 mi
1:30 PM86 °FBroken clouds.2 mph89%29.53 "Hg1 mi
12:30 PM95 °FBroken clouds.5 mph67%29.53 "Hg3 mi
12:00 PM95 °FBroken clouds.7 mph67%29.56 "Hg3 mi
10:00 AM91 °FBroken clouds.7 mph75%29.56 "Hg3 mi
9:00 AM91 °FBroken clouds.7 mph71%29.59 "Hg3 mi
Weather by CustomWeather, © 2014

See weather overviewHow to use our weather pages